Flag for U.S.A. Weather past 2 weeks in Milwaukee, Wisconsin, U.S.A.

Now
27 °F

Light snow. Mostly cloudy.


Feels Like: 16 °F
Forecast: 18 / 28 °F
Wind: 12 mph from Northeast

Location: Milwaukee / Timmerman

Current Time: Feb 1, 2015 at 2:14:49 AM

Latest Report: Feb 1, 2015 at 1:55 AM


Visibility: 3 mi

Pressure: 30.15 "Hg

Humidity: 86%

Dew point: 23 °F

Location of MilwaukeeLocation

Historic Weather in Milwaukee — Graph

°F

Milwaukee temperature yesterday

Maximum temperature yesterday: 34 °F (at 11:45 AM)
Minimum temperature yesterday: 19 °F (at 12:15 AM)
Average temperature yesterday: 26 °F

Past Weeks' High & Low Weather Summary

 TemperatureHumidityPressure
High41 °F (Jan 17, 10:45 AM)93% (Jan 20, 4:15 AM)30.53 "Hg (Jan 20, 4:15 AM)
Low14 °F (Jan 26, 1:55 AM)36% (Jan 30, 1:45 PM)29.52 "Hg (Jan 17, 2:45 PM)
Average29 °F74%30.01 "Hg
* Reported Jan 17 1:15 AM — Feb 1 1:15 AM, Milwaukee, Weather by CustomWeather, © 2014

Note: Actual official high and low records may vary slightly from our data, if they occured in-between our weather recording intervals... More about our weather records

Advertising

Milwaukee weather history for previous 24 hours

 ConditionsComfort  
Time TempWeatherWind HumidityBarometerVisibility
1:15 AM
Feb 1
28 °FLight snow. Mostly cloudy.12 mph80%30.17 "Hg3 mi
12:55 AM28 °FLight snow. Mostly cloudy.13 mph86%30.18 "Hg2 mi
12:35 AM28 °FLight snow. Low clouds.12 mph93%30.18 "Hg1 mi
12:15 AM28 °FLight snow. Mostly cloudy.10 mph93%30.19 "Hg1 mi
11:55 PM
Jan 31
30 °FLight snow. Low clouds.7 mph86%30.20 "Hg1 mi
11:35 PM30 °FLight snow. Low clouds.7 mph86%30.20 "Hg1 mi
11:15 PM28 °FLight snow. Overcast.7 mph93%30.19 "Hg3 mi
10:55 PM28 °FLight snow. Mostly cloudy.7 mph93%30.19 "Hg2 mi
10:35 PM28 °FLight snow. Overcast.8 mph93%30.19 "Hg2 mi
10:15 PM30 °FLight snow. Overcast.8 mph80%30.19 "Hg4 mi
9:55 PM30 °FLight snow. Mostly cloudy.8 mph86%30.18 "Hg5 mi
9:15 PM28 °FLow clouds.8 mph93%30.18 "Hg7 mi
8:55 PM28 °FIce fog.10 mph93%30.19 "Hg5 mi
8:35 PM28 °FOvercast.10 mph86%30.19 "Hg10 mi
8:15 PM30 °FOvercast.10 mph80%30.20 "Hg10 mi
6:45 PM28 °FOvercast.7 mph74%30.20 "Hg10 mi
4:45 PM32 °FOvercast.No wind64%30.18 "Hg10 mi
3:45 PM34 °FOvercast.No wind56%30.17 "Hg10 mi
2:45 PM34 °FOvercast.5 mph56%30.17 "Hg10 mi
1:45 PM34 °FOvercast.6 mph56%30.16 "Hg10 mi
12:45 PM34 °FOvercast.7 mph51%30.17 "Hg10 mi
11:45 AM34 °FSunny.8 mph51%30.18 "Hg10 mi
10:45 AM30 °FSunny.10 mph59%30.18 "Hg10 mi
9:45 AM30 °FSunny.10 mph59%30.18 "Hg10 mi
8:45 AM27 °FSunny.9 mph69%30.19 "Hg10 mi
7:45 AM25 °FOvercast.9 mph69%30.20 "Hg10 mi
6:45 AM25 °FOvercast.9 mph69%30.18 "Hg10 mi
5:35 AM23 °FOvercast.8 mph80%30.19 "Hg10 mi
5:15 AM21 °FPassing clouds.6 mph80%30.20 "Hg10 mi
4:55 AM19 °FClear.6 mph79%30.20 "Hg10 mi
4:35 AM19 °FClear.6 mph79%30.21 "Hg10 mi
4:15 AM19 °FPassing clouds.5 mph79%30.22 "Hg10 mi
3:55 AM19 °FPassing clouds.5 mph79%30.22 "Hg10 mi
3:35 AM19 °FClear.5 mph73%30.22 "Hg10 mi
3:15 AM19 °FClear.3 mph73%30.23 "Hg10 mi
2:55 AM21 °FPassing clouds.5 mph68%30.25 "Hg10 mi
2:35 AM21 °FOvercast.7 mph68%30.25 "Hg10 mi
2:15 AM21 °FOvercast.5 mph68%30.26 "Hg10 mi
Weather by CustomWeather, © 2014

See weather overviewHow to use our weather pages